CAPELLA-8 (WHITNEY)

导读

CAPELLA-8(惠特尼)是美国卡佩拉空间公司研制的合成孔径雷达(SAR)遥感卫星,于2022年1月13日发射升空。它属于美国首个高分辨率SAR卫星星座组成部分,可不受昼夜、天气条件限制获取地球观测数据。该卫星服务覆盖国防监测、灾害评估、资源勘探、海事监管等多个领域,能为全球商业与政府客户提供精准的全天候地理空间信息支撑,推动了商业高分辨率SAR遥感应用发展。

基本信息
目录编号:
51071
目录名称:
CAPELLA-8 (WHITNEY)
国际标识:
2022-002CR
轨道中心:
EARTH
卫星名称:
CAPELLA-8 (WHITNEY)
卫星全名:
--
卫星状态:
已陨落 最后检测时间 2023-09-06
发射日期:
2022-01-13 UTC
国别 :
美国 (US)
星等 :
--
轨道信息
数据来源 国际轨道数据
星历时间: 2023-09-06T17:34:15+0800
轨道信息已过期1010天
半长轴: 6546.887km
偏心率: 0.0015575
轨道倾角: 97.401°
近地点辐角 273.539°
升交点赤经 322.578°
平近点角 175.065°
近地点: 158.555km
远地点: 178.949km
周期: 87.864分钟
每日圈数: 16.388929
详细信息
使用方式:
暂无